Theta_e
328 330 331 331 331 332 332 332 332 333 332 332 332 332 333 333 333 332 333 333 333 332 331 330 329 330 331 330 329 331 331 332 334 335 334 333 333 333 331 329 329 331 331 329 328 330 329 331 330 330 330 330 331 330 330 329 329 327 325 326 325 324 325 326 325 326 323 322 323 322 324 327 329 329 332 332 331 333 335 334 333 332 332 332 333
328 328 330 330 331 331 332 332 332 330 331 330 331 332 334 335 333 332 333 333 332 330 331 331 330 330 328 329 329 329 330 331 331 331 330 330 329 328 328 326 326 327 328 327 326 326 325 325 327 325 325 326 327 328 327 328 325 324 323 321 323 322 321 323 324 324 320 319 318 319 320 323 324 327 326 326 326 328 330 332 333 332 333 333 333
326 327 328 329 330 331 331 331 332 331 330 329 331 334 333 332 333 333 332 331 331 333 332 332 332 332 330 328 329 330 333 333 330 329 328 326 325 325 325 324 324 324 325 327 324 324 323 322 323 324 323 325 322 322 322 321 321 320 320 319 318 320 320 323 322 321 317 319 319 315 314 316 319 321 323 322 324 325 325 326 327 327 327 327 328
324 326 326 328 329 329 330 330 331 331 331 331 332 333 333 331 331 332 332 332 332 333 333 333 333 333 332 331 332 333 329 330 328 326 324 323 323 324 323 323 323 322 323 323 323 322 321 321 321 321 322 322 320 319 318 318 318 318 319 319 318 315 316 318 320 319 319 317 313 314 314 314 311 315 316 319 324 323 324 323 324 324 322 322 323
323 325 327 327 328 329 330 330 331 331 331 331 332 332 332 331 331 331 331 330 330 333 332 332 332 331 332 332 333 332 331 328 326 324 324 324 321 320 321 322 321 321 321 321 323 320 320 320 319 319 318 318 321 317 316 316 317 317 317 316 316 314 313 314 316 318 318 319 317 315 312 312 311 313 315 316 320 320 321 321 323 320 319 319 321
324 325 326 327 328 329 330 330 330 330 330 331 331 331 330 331 331 330 331 331 332 333 334 333 331 330 329 329 327 326 325 326 323 322 321 319 318 320 320 320 320 319 319 319 319 321 318 318 317 316 316 317 318 316 316 315 316 316 316 315 314 314 312 312 311 315 317 316 318 317 318 313 311 313 314 309 317 319 319 319 319 317 316 316 320
325 326 327 327 328 328 329 329 330 329 329 331 331 331 331 330 330 330 330 330 331 332 334 333 331 329 329 331 329 324 323 324 325 325 323 322 321 319 318 318 318 317 317 317 316 318 317 316 315 315 316 316 318 315 314 314 315 315 315 313 312 313 312 310 310 310 312 313 314 314 316 316 315 312 308 310 307 312 314 314 314 314 314 315 316
324 325 327 328 328 328 328 329 328 328 330 331 331 331 330 330 328 327 327 329 331 332 332 332 331 330 329 328 327 325 323 322 323 322 322 322 320 319 318 317 318 317 316 315 315 316 316 315 315 314 315 316 316 313 313 314 314 314 314 312 312 312 312 310 309 310 309 309 312 310 312 312 312 313 312 309 308 305 306 311 311 310 311 313 312
324 324 325 326 327 327 327 327 328 329 330 329 330 330 327 326 326 325 325 325 326 327 326 326 329 328 327 326 324 324 324 324 323 323 321 321 318 319 318 318 317 315 315 314 314 314 316 315 313 313 314 315 316 313 313 312 312 311 310 310 309 310 312 312 308 307 308 306 307 307 307 307 309 310 310 309 306 304 303 303 304 307 308 309 309
325 325 325 326 327 326 327 328 328 327 328 330 329 327 325 324 324 323 323 323 324 324 324 323 324 326 324 323 322 321 322 322 321 320 320 319 317 318 318 316 315 313 313 313 313 313 313 314 313 312 313 315 316 312 312 311 311 310 310 310 309 308 309 309 308 307 308 307 307 307 305 305 306 306 305 305 305 305 301 301 303 302 301 304 307
324 325 326 326 326 325 326 325 325 326 327 328 326 324 322 322 322 321 321 322 322 322 321 321 321 322 322 322 321 320 320 321 320 319 319 318 316 316 315 315 314 312 311 311 311 312 312 314 312 312 313 315 314 311 310 311 310 310 309 309 309 308 307 307 308 308 307 307 307 306 305 306 305 303 302 303 303 301 301 301 302 303 302 301 303
323 324 325 324 324 324 324 323 324 324 325 324 322 321 321 321 320 319 319 320 321 321 321 320 320 319 319 320 321 321 321 321 320 319 318 316 315 314 314 313 311 311 310 308 308 310 311 309 311 310 311 310 310 310 310 311 310 310 309 309 309 308 308 310 307 306 306 306 305 306 306 308 305 303 303 302 301 301 301 300 300 301 300 301 303
323 323 323 322 322 322 322 322 322 321 321 321 320 320 320 319 318 318 317 318 318 319 319 318 318 318 318 318 319 321 321 321 320 319 318 316 314 313 311 309 308 308 308 307 307 308 309 308 308 308 307 309 310 310 309 310 307 307 308 308 308 307 307 307 305 305 306 304 304 306 306 305 304 304 304 302 302 302 301 298 299 299 296 298 300
323 323 322 321 321 321 321 321 321 321 319 319 319 319 319 318 317 317 316 317 317 317 317 317 317 317 317 316 317 317 317 317 316 315 314 313 313 311 309 308 307 307 307 307 308 308 308 308 308 308 308 308 309 308 308 308 307 306 305 306 306 307 306 305 305 305 305 304 305 304 303 302 303 304 303 302 302 300 298 297 296 297 297 296 298
322 321 321 321 321 321 321 321 321 320 319 319 318 318 317 316 316 316 315 315 315 314 314 314 314 315 315 315 315 316 315 315 315 315 313 313 313 310 307 307 307 306 307 308 309 307 307 307 308 306 306 306 306 306 307 306 306 305 305 305 306 307 305 305 304 304 305 303 303 302 303 301 301 303 302 301 301 299 298 297 295 293 293 294 295
321 320 320 320 321 321 320 321 321 319 319 318 317 317 316 316 315 315 314 314 315 314 313 313 313 314 314 314 315 316 316 314 314 314 313 313 310 308 307 306 307 307 308 307 308 307 306 305 306 305 305 305 306 306 305 304 305 305 303 303 303 309 305 304 304 303 303 303 302 302 301 300 301 302 301 300 299 299 298 297 296 294 291 289 292
320 319 319 319 320 320 320 321 320 319 318 317 316 316 316 315 314 314 314 314 313 313 312 312 312 313 313 314 313 313 313 313 312 312 312 311 309 307 307 307 308 307 309 308 306 306 306 305 304 304 304 304 305 305 305 304 304 303 303 302 303 303 305 303 303 303 303 302 302 301 301 300 300 300 300 299 298 298 297 297 297 295 294 290 289
320 320 320 320 320 319 320 320 319 319 318 317 317 316 315 315 314 313 312 311 312 312 311 311 311 311 312 313 313 313 312 312 311 311 311 309 308 308 307 307 306 308 309 309 306 305 305 308 303 303 303 304 304 304 304 304 303 302 303 302 302 303 302 303 304 303 302 302 302 300 300 299 299 299 298 298 298 297 296 296 296 296 295 292 291
318 319 319 319 319 319 319 319 319 319 319 318 318 316 315 314 314 313 312 312 312 312 312 312 313 313 313 312 312 312 312 311 311 312 309 308 307 307 307 306 307 308 307 304 303 303 303 302 302 302 302 302 302 303 303 302 303 301 303 301 302 302 301 301 301 303 303 301 300 299 299 298 298 297 297 297 297 297 296 296 295 295 295 294 292
317 318 319 319 319 319 318 318 318 318 318 317 317 316 315 314 313 312 312 312 311 311 312 311 312 312 312 312 312 312 312 312 311 309 307 306 306 306 306 305 305 306 304 303 302 302 302 301 301 300 300 300 300 300 301 301 301 302 301 302 302 301 301 300 300 301 303 301 299 298 298 297 297 296 296 296 296 296 296 295 295 294 294 294 293
317 318 318 318 318 318 318 318 318 318 317 316 316 316 315 314 313 312 310 310 311 311 312 311 311 310 311 310 311 310 310 310 309 307 306 306 306 306 305 305 305 304 304 303 302 302 301 300 299 300 298 298 298 298 299 299 299 299 302 302 301 301 300 300 301 300 300 300 298 297 297 297 297 295 295 295 295 295 295 295 295 294 293 294 293
317 317 318 318 318 318 318 318 317 316 315 315 316 315 314 313 312 311 310 310 310 311 311 310 310 309 308 307 308 308 307 306 306 305 305 305 305 304 305 304 303 304 304 304 302 302 300 300 299 297 297 296 297 297 298 298 299 299 300 303 302 301 300 299 299 298 298 299 297 296 296 296 296 295 295 295 295 295 294 294 293 293 293 293 294
317 317 317 317 317 317 317 316 315 315 315 315 314 314 313 311 311 310 310 310 310 310 310 309 308 307 307 307 307 307 307 306 305 304 304 304 304 304 305 303 303 303 304 302 301 301 300 299 298 296 296 296 296 296 297 297 298 298 299 300 301 299 299 299 298 298 298 298 297 296 295 296 297 294 294 294 295 294 294 293 292 293 293 293 294
317 318 318 317 317 317 316 314 314 314 314 313 313 313 312 311 310 310 309 309 310 309 309 308 308 307 307 307 306 305 305 304 304 303 303 303 304 304 304 303 303 303 303 302 301 300 299 298 296 295 295 295 295 295 295 296 297 297 298 300 300 299 299 299 298 297 297 297 296 295 294 295 295 294 293 293 293 292 292 292 292 292 293 293 294
316 316 316 316 315 314 314 314 313 314 313 312 312 312 312 311 311 310 309 309 309 308 307 307 307 307 307 306 305 305 304 303 303 303 303 303 303 303 304 303 303 303 302 301 301 300 298 297 296 295 294 294 294 294 294 294 295 296 297 298 299 299 298 298 298 299 301 296 296 295 295 294 294 293 292 291 291 291 292 292 291 292 292 293 295
315 315 315 314 313 313 313 313 313 313 313 312 312 312 311 311 310 310 309 308 308 307 307 306 306 306 306 305 304 303 303 302 303 302 302 303 303 303 302 303 303 302 301 301 300 299 298 296 295 294 294 294 293 293 293 293 294 295 295 297 299 299 298 298 297 297 297 297 296 295 295 295 294 292 291 290 291 290 291 291 291 291 292 292 293
314 314 313 313 312 312 312 313 313 313 313 312 312 311 311 310 309 309 308 307 307 307 307 306 306 305 304 303 303 303 302 302 302 302 302 302 302 302 302 302 303 302 301 300 300 298 297 295 295 294 294 293 293 292 292 292 292 293 294 296 297 298 297 298 297 297 296 296 295 296 296 294 293 291 291 290 290 290 292 291 292 291 292 291 292
314 313 312 312 312 312 312 312 312 313 313 312 312 312 310 309 308 308 308 308 308 307 306 305 304 303 302 302 302 302 302 302 302 302 302 302 302 302 302 303 303 301 300 300 299 298 297 296 294 294 293 293 292 292 291 291 292 292 293 294 296 298 297 297 297 296 296 296 295 295 296 294 293 292 291 291 291 291 291 290 291 291 291 291 291
313 312 312 312 311 311 311 311 312 312 311 311 311 309 309 309 309 308 308 307 307 307 305 304 303 303 302 302 302 302 302 302 302 301 301 301 301 301 302 302 303 303 302 300 299 298 296 295 294 293 292 292 292 292 292 292 291 292 292 294 295 296 297 297 296 296 295 295 294 295 295 296 298 299 298 297 297 297 293 290 291 291 292 291 291
312 311 311 311 311 311 311 311 311 311 311 310 309 308 308 307 307 307 307 307 307 305 304 303 302 302 302 302 302 302 301 301 301 300 300 301 301 301 301 301 301 301 299 298 297 296 295 294 293 292 292 292 292 293 294 293 294 292 292 293 295 296 297 296 295 296 295 295 295 294 300 300 300 299 298 296 295 295 296 295 292 292 291 291 291
311 311 311 311 311 311 311 311 311 311 310 310 308 307 307 307 307 306 306 306 305 303 303 302 302 302 301 301 301 301 301 300 300 300 300 301 301 301 301 301 300 300 299 298 296 294 293 293 293 291 291 292 292 293 293 292 292 293 294 292 293 295 297 295 294 294 294 295 294 294 294 298 299 298 296 295 294 294 294 294 294 295 296 293 291
311 311 311 311 310 310 310 310 310 310 310 309 307 306 306 306 306 306 306 306 304 303 302 302 301 301 300 300 300 300 300 300 300 300 300 300 300 300 300 300 300 300 299 297 295 294 293 293 292 291 290 291 291 294 291 292 292 292 294 294 294 296 297 295 294 294 294 294 293 294 294 295 296 295 295 292 294 294 293 293 293 293 293 294 294
311 310 310 311 310 310 310 310 311 310 309 307 307 306 305 305 305 306 306 304 303 302 301 300 300 300 300 300 299 300 300 299 299 300 300 300 300 300 299 299 299 300 299 297 295 294 293 292 292 291 290 290 289 293 291 292 292 292 292 296 296 296 297 295 293 294 294 293 293 295 293 294 294 299 298 291 290 290 294 294 294 294 294 294 293
311 311 311 311 311 311 311 311 311 310 309 307 307 306 306 306 306 306 304 302 301 300 299 299 299 299 299 299 299 299 298 298 299 299 299 299 299 298 298 298 299 299 298 298 296 294 294 293 292 291 290 289 289 292 291 292 292 291 292 294 296 294 295 295 295 295 295 293 293 292 291 292 291 292 292 291 290 289 289 290 290 290 291 293 293
311 310 310 310 310 310 310 310 309 308 307 307 307 306 306 305 305 304 302 301 300 299 299 299 298 298 298 298 298 297 298 298 298 298 298 298 298 297 298 298 297 297 296 297 297 295 295 295 293 292 291 290 291 292 291 291 291 291 292 294 295 294 294 293 294 295 295 293 292 293 291 291 290 291 293 293 291 290 289 290 289 290 290 291 291
310 310 310 310 310 309 309 309 310 308 307 307 306 306 305 304 304 302 300 300 299 299 299 298 297 297 297 297 297 297 297 297 298 298 297 297 297 297 297 297 297 295 295 295 295 297 295 294 293 292 290 289 289 291 291 291 291 291 293 294 293 292 292 292 292 293 294 294 292 292 291 291 290 290 294 293 293 292 290 289 289 289 289 290 291
311 311 311 311 311 310 310 310 309 309 307 307 307 306 304 303 302 301 299 299 299 299 298 297 297 297 297 297 298 297 297 297 297 297 296 296 296 296 296 297 295 295 294 293 293 294 295 295 295 293 290 288 288 291 291 291 291 291 292 291 291 291 291 290 291 292 293 294 293 292 292 291 290 290 293 291 291 293 291 289 288 288 289 289 290
311 310 310 310 310 310 310 310 309 309 307 307 306 305 303 302 301 300 299 299 299 298 298 297 296 297 297 297 297 297 297 297 296 296 296 295 296 296 296 297 295 294 293 293 293 293 293 294 294 293 292 289 288 291 291 291 291 291 293 290 291 290 289 289 290 291 292 293 294 301 301 294 292 292 293 291 291 293 290 289 288 288 288 288 289
310 309 309 309 310 310 310 310 309 306 306 306 305 304 302 301 300 299 299 298 297 297 297 296 296 297 297 297 297 297 297 296 296 296 296 296 296 296 297 297 296 295 295 294 295 293 292 292 292 294 299 291 289 292 292 291 291 291 292 289 290 289 289 288 289 290 292 292 292 296 299 296 295 294 291 291 291 292 290 289 288 287 287 287 289
310 310 310 310 311 310 309 308 306 306 307 306 305 303 302 301 300 299 298 297 297 297 296 296 297 297 297 297 297 298 297 297 296 296 296 296 296 296 296 296 296 296 295 294 294 293 292 292 293 295 297 293 291 290 291 292 292 291 292 290 290 288 289 288 288 292 291 291 291 291 294 293 292 291 291 291 290 291 290 289 289 287 287 287 290
309 309 307 310 310 310 308 307 307 307 307 306 305 303 301 300 299 298 297 297 297 297 297 297 297 297 297 297 297 297 297 297 297 296 296 297 296 295 295 295 294 295 294 294 295 295 294 293 293 293 295 294 293 290 291 291 291 291 291 291 288 288 288 287 287 289 289 289 290 290 290 293 292 291 291 290 290 290 291 291 289 288 289 291 291
310 308 308 309 308 308 307 307 307 307 307 306 305 302 301 299 298 297 297 297 297 297 297 297 297 297 297 297 297 297 298 298 298 297 296 296 296 297 297 296 295 295 295 294 294 295 294 294 295 295 294 294 297 297 290 292 291 291 291 291 289 288 289 288 289 288 288 289 289 289 290 292 291 290 290 290 290 290 290 292 290 289 289 290 291
308 307 308 308 307 307 306 306 307 307 306 306 304 301 300 299 298 297 298 298 297 297 297 297 297 297 297 297 297 297 298 299 298 297 296 296 296 297 297 297 296 295 296 296 296 295 294 294 294 295 293 292 292 294 295 292 291 290 290 290 290 289 289 290 288 287 288 289 289 290 291 293 290 290 290 290 290 290 291 290 290 289 290 290 291
308 308 308 308 307 307 306 306 307 306 306 305 303 300 299 298 298 299 298 298 297 297 297 297 297 297 297 297 298 298 298 298 298 298 297 297 297 297 297 297 296 296 296 295 295 296 294 293 293 293 294 291 291 290 292 293 290 290 290 290 290 289 290 289 289 288 290 289 289 289 290 290 290 290 290 290 290 290 290 290 290 290 290 291 290
307 307 307 307 307 306 306 306 305 304 304 303 302 300 298 297 298 299 298 297 297 297 297 297 297 297 297 298 297 297 297 297 297 298 297 297 297 297 296 296 296 296 295 295 294 295 294 293 293 294 293 292 293 290 289 290 291 291 290 290 290 289 290 290 290 290 290 290 290 290 289 290 290 290 290 290 290 291 290 290 290 290 293 289 288
308 307 306 307 306 306 306 304 303 304 303 302 301 300 298 298 299 298 298 298 297 297 297 297 297 297 297 298 297 297 297 297 297 297 297 297 297 297 297 296 296 297 296 295 293 292 292 293 291 292 293 292 291 289 288 288 292 292 291 290 290 290 291 291 292 290 290 290 289 289 290 290 290 291 291 289 289 291 290 290 290 292 289 288 287
307 307 306 307 306 305 305 303 301 302 301 300 300 300 299 299 298 298 298 298 298 297 297 297 297 297 297 298 297 296 296 297 297 297 297 298 297 297 297 295 295 294 294 292 292 292 292 291 291 291 291 290 288 287 287 287 286 286 286 288 289 290 291 291 290 289 290 289 289 290 290 289 290 290 290 290 290 291 290 289 288 288 288 288 288
307 306 307 306 306 305 304 302 301 301 300 300 300 299 299 298 298 298 298 298 297 297 297 297 297 297 297 298 297 293 296 296 296 296 296 296 297 298 296 295 294 294 292 292 291 291 291 292 290 289 290 288 287 286 286 285 287 287 286 286 287 288 286 286 287 287 288 289 289 289 289 290 289 289 288 287 288 289 288 287 287 287 288 287 290
306 306 306 306 305 304 303 302 301 300 299 299 299 299 299 298 298 298 298 297 297 296 297 297 298 298 297 297 297 297 296 296 295 296 296 296 295 295 294 293 293 293 294 294 293 293 293 293 291 288 288 288 287 286 287 289 286 289 287 286 287 286 287 286 289 289 289 288 287 287 287 287 286 286 285 286 287 287 287 287 287 287 287 287 287
306 306 306 305 305 304 302 301 300 299 299 298 298 298 298 298 298 298 298 297 296 297 297 297 297 297 297 296 297 297 297 296 296 294 293 293 291 293 292 291 289 291 292 292 291 291 293 292 290 289 288 286 286 288 290 289 289 289 289 289 289 289 288 288 288 288 288 285 284 283 284 285 285 284 284 284 285 285 285 285 285 287 286 285 286
306 306 305 305 305 304 302 300 299 299 298 298 298 298 298 298 298 298 298 297 297 296 296 296 296 296 296 296 296 296 296 297 297 295 293 291 291 290 290 290 290 290 290 290 289 289 289 291 292 290 291 290 291 290 289 289 289 289 289 289 289 289 288 288 288 286 284 282 282 283 284 284 283 284 284 284 285 284 284 283 284 284 285 285 285
Wind_Speed
7 6 7 6 6 6 6 7 6 6 5 5 6 7 8 8 8 8 6 6 5 5 4 5 5 5 4 5 6 4 5 5 5 5 7 9 9 8 7 6 7 7 7 7 8 7 7 5 6 7 7 6 5 5 5 5 5 4 4 4 5 6 5 7 8 6 4 6 4 3 4 4 5 3 6 8 8 7 6 6 6 7 7 6 7
8 7 9 7 5 5 5 6 5 7 4 4 5 7 7 7 8 7 6 5 5 5 4 3 2 4 6 4 5 5 4 4 7 7 9 9 9 8 6 6 6 7 6 6 7 7 6 6 6 6 6 5 5 4 4 5 6 6 5 5 5 5 4 7 8 7 6 6 6 7 6 4 3 2 7 8 9 7 7 7 7 7 8 8 8
8 7 8 7 6 5 5 4 4 4 4 3 3 5 7 8 7 6 5 5 4 4 5 4 2 3 4 3 5 5 3 6 8 8 9 9 8 6 6 6 6 7 6 6 6 6 6 6 5 4 4 4 5 6 6 7 6 6 7 6 6 4 4 5 9 9 5 6 3 2 4 8 5 7 6 12 8 6 6 8 8 7 11 11 9
9 7 9 9 6 5 5 4 5 5 4 3 3 5 5 6 6 5 5 4 4 4 4 5 7 6 4 6 2 5 8 8 10 9 9 9 7 6 6 6 6 6 5 4 5 5 5 5 5 5 5 5 5 5 6 6 6 7 7 7 5 6 6 6 8 9 8 7 5 2 3 2 5 5 10 9 4 9 7 8 7 8 11 13 11
10 8 8 9 7 6 5 5 5 5 4 4 4 4 4 6 5 5 5 4 4 5 6 6 7 7 5 3 3 8 8 8 8 8 7 7 6 6 5 5 6 5 4 4 4 5 5 6 6 5 6 7 5 6 6 5 5 5 6 6 7 4 6 4 7 8 9 9 5 4 3 3 3 7 11 6 5 7 6 8 8 12 12 12 10
11 9 8 9 8 8 7 7 5 4 5 3 3 4 4 5 5 5 4 3 4 4 5 5 6 7 6 6 6 6 7 6 7 6 6 5 5 3 5 5 5 5 5 5 5 5 7 7 6 6 6 6 6 5 6 6 7 7 7 6 7 7 3 6 6 7 6 9 8 7 4 3 6 7 4 8 10 2 6 5 7 11 11 12 9
9 7 7 8 9 10 9 8 6 6 5 4 4 4 4 5 4 4 4 4 4 4 4 5 6 5 5 5 5 6 8 6 7 6 6 5 5 6 6 6 5 4 5 6 8 8 6 6 7 7 7 6 6 7 7 7 7 7 7 7 6 6 7 7 7 7 4 7 7 7 6 7 6 6 6 7 10 8 2 7 9 10 11 10 10
12 11 9 7 9 9 10 8 7 7 6 6 6 5 6 5 4 4 3 3 3 3 3 3 6 6 6 8 7 7 8 8 7 6 5 5 5 5 5 5 5 6 7 7 8 7 7 6 7 7 7 7 7 7 6 5 6 6 7 6 6 6 7 7 6 6 7 5 6 7 7 6 6 5 7 5 5 8 14 10 3 10 11 6 10
14 11 10 10 9 9 8 8 8 8 6 7 6 6 6 6 5 4 5 5 5 6 7 7 6 8 8 8 8 6 8 8 7 6 6 5 6 4 5 5 6 7 8 7 8 7 7 6 6 7 7 6 6 6 5 7 7 6 6 6 6 6 5 4 4 5 4 5 3 4 3 4 4 4 6 6 5 6 7 10 15 15 7 4 10
13 13 11 9 10 8 8 8 8 6 5 6 6 7 7 5 6 7 6 5 6 8 9 9 8 7 8 8 9 7 7 8 6 6 5 4 5 4 4 5 6 7 7 7 7 7 6 6 6 7 6 5 5 6 5 6 5 5 4 4 3 4 3 3 3 3 3 3 3 3 4 4 3 3 4 5 3 3 5 9 10 13 17 13 8
12 12 11 9 10 10 9 8 7 6 6 6 7 7 6 6 6 7 5 6 7 8 9 9 8 8 7 7 9 9 8 8 7 6 6 4 5 4 5 5 6 6 6 6 6 5 6 6 6 6 6 5 5 6 5 4 4 3 3 3 4 4 3 3 3 4 3 4 5 5 5 6 7 7 7 7 6 5 6 6 7 7 10 15 12
13 12 11 12 11 11 9 8 7 7 6 7 8 7 7 6 7 8 6 6 6 7 8 8 8 8 8 7 6 6 7 7 8 6 5 6 4 4 5 6 6 6 5 5 5 6 6 6 6 5 6 6 6 6 6 5 6 5 4 4 4 5 5 5 5 7 7 6 7 7 8 7 8 7 6 7 7 7 6 7 7 9 7 6 9
13 13 12 11 11 12 11 9 8 6 8 9 9 7 6 7 7 8 6 6 7 7 8 8 7 7 8 8 7 6 6 7 7 5 5 5 4 5 6 6 6 6 5 5 5 6 6 6 6 6 6 6 5 5 6 6 6 6 5 5 5 5 7 6 7 7 6 7 7 7 7 8 8 6 7 7 6 6 6 7 7 7 9 9 8
12 13 12 12 11 11 11 11 9 7 9 9 8 7 6 7 6 8 8 7 7 8 8 8 8 8 8 8 8 7 8 8 7 7 6 5 5 7 6 6 6 4 4 5 4 6 6 5 5 6 5 6 6 6 6 5 5 6 6 6 6 5 7 6 7 7 7 8 7 8 8 8 7 7 7 8 8 9 9 10 9 7 7 9 7
13 12 12 13 12 12 11 11 8 9 10 9 7 7 7 7 7 8 8 8 8 9 9 9 8 8 8 8 8 7 7 7 6 5 6 5 6 8 6 6 6 5 5 5 6 6 5 6 6 6 6 6 6 6 6 6 5 6 6 6 6 5 7 7 7 7 7 7 7 7 7 8 7 7 8 9 9 9 9 9 10 11 10 7 9
12 14 12 12 11 11 10 9 9 10 9 8 8 8 7 7 7 8 8 8 8 9 9 9 8 7 8 8 8 7 7 6 6 5 5 6 8 7 7 6 5 5 5 5 5 5 5 6 6 6 6 6 6 6 6 6 7 7 7 7 7 4 6 7 6 7 8 7 6 7 7 7 8 9 9 9 9 8 8 8 8 8 10 12 9
13 13 13 13 11 10 10 9 10 10 9 9 8 8 8 7 8 9 8 8 9 8 8 7 7 7 7 7 7 7 7 7 7 6 6 7 7 6 6 5 4 4 4 4 5 5 5 5 5 6 6 6 6 6 6 7 7 6 6 7 7 6 6 5 6 7 7 7 5 8 8 9 8 8 8 8 8 8 7 7 6 7 7 8 10
14 13 13 14 14 13 11 10 11 10 10 10 9 7 6 7 8 9 9 10 8 8 8 8 8 7 7 7 6 7 6 7 6 6 6 6 5 6 4 5 4 4 4 4 5 6 5 5 5 6 6 6 6 6 6 6 6 6 6 6 5 5 6 6 6 6 7 6 7 9 8 8 8 8 8 7 7 7 7 7 6 6 6 7 7
14 15 13 13 12 12 11 11 11 11 11 10 10 9 8 7 7 8 9 9 8 7 6 7 7 5 5 6 7 6 5 6 5 5 6 6 5 5 4 4 5 4 5 5 6 6 6 6 6 6 6 7 8 7 7 7 5 6 5 6 5 5 6 5 5 5 5 7 9 10 9 8 8 8 7 7 6 7 7 7 7 7 7 6 7
14 14 14 14 13 12 13 13 12 12 11 11 11 10 10 9 9 8 8 8 8 8 7 7 7 6 6 6 6 5 4 5 6 7 7 7 6 5 5 5 5 5 6 6 6 6 6 7 7 8 8 8 8 8 8 7 7 4 4 6 5 5 5 5 4 5 6 8 9 9 9 8 7 7 7 5 5 5 5 6 7 7 7 7 7
15 14 14 15 14 13 13 12 11 11 11 11 10 11 10 9 9 9 9 9 8 7 7 6 6 7 6 5 4 5 6 6 7 7 6 5 5 5 5 5 5 5 5 7 7 8 7 7 8 8 8 8 8 8 7 6 6 6 4 4 4 5 4 4 6 7 7 8 9 9 8 8 6 5 5 5 5 6 6 6 6 7 7 7 8
14 14 14 14 13 13 12 11 11 12 11 11 9 10 10 10 9 9 8 7 8 7 6 7 4 4 5 6 8 7 8 8 8 7 7 6 5 5 4 5 5 4 5 7 7 7 7 8 8 9 8 8 8 7 7 6 7 8 5 4 4 6 6 5 6 6 7 7 7 7 7 5 4 3 5 5 6 7 8 8 8 8 7 8 8
15 15 13 12 12 12 12 13 13 13 12 11 10 10 10 10 10 8 9 8 6 5 5 7 7 7 7 7 7 7 7 7 7 6 6 6 5 5 5 6 5 6 7 8 8 8 8 8 9 8 8 8 7 6 6 7 7 7 6 4 4 5 4 5 7 7 7 6 6 6 4 3 2 4 6 6 6 8 7 8 9 7 7 7 7
15 13 12 13 12 11 11 12 13 12 11 12 11 10 10 10 9 8 9 9 7 5 7 7 7 7 7 7 7 7 7 7 6 5 5 5 5 5 5 5 5 6 8 8 9 9 9 9 8 8 8 7 7 7 7 6 6 6 7 6 4 4 4 4 6 6 6 5 5 4 3 3 4 6 6 6 7 7 7 7 7 6 6 7 8
15 15 14 14 14 13 12 12 12 11 11 11 11 11 10 11 10 9 9 8 6 7 7 7 7 8 7 7 7 7 7 6 6 6 6 6 6 6 4 4 5 6 7 8 8 9 9 8 8 8 7 7 6 6 7 7 7 6 6 7 4 3 5 4 5 5 6 5 3 3 2 5 5 5 5 6 8 9 7 6 6 6 6 6 7
17 16 15 15 15 13 12 12 11 11 12 12 11 10 10 10 11 10 9 7 7 7 8 7 7 7 7 8 7 7 7 7 6 6 7 6 7 6 6 6 7 8 8 8 8 8 8 9 8 7 6 6 5 5 6 6 6 6 6 6 6 3 4 4 4 5 5 4 3 2 5 6 5 5 4 6 6 7 6 6 6 7 6 6 7
18 18 16 13 13 15 14 12 11 11 10 11 12 12 11 11 11 10 8 8 8 8 8 8 7 7 8 8 8 7 7 6 6 6 6 6 6 6 6 7 7 8 8 8 8 9 8 9 7 6 6 5 5 5 6 6 5 6 6 6 6 4 4 2 3 5 4 5 4 4 5 4 4 3 4 5 5 5 5 7 7 7 7 7 7
14 15 18 19 17 16 15 13 12 11 10 11 12 11 10 13 12 11 10 8 8 9 8 7 7 7 8 8 7 7 7 6 5 6 6 7 6 6 6 6 7 8 8 8 9 9 8 7 6 5 5 4 5 6 6 5 5 5 5 5 4 5 2 2 3 4 4 4 5 4 4 4 4 3 4 3 4 5 4 6 7 7 7 8 7
17 17 16 17 17 16 16 14 14 12 11 13 11 10 11 12 11 11 10 10 10 10 9 8 8 8 8 8 7 6 6 6 7 7 7 7 6 5 5 6 6 6 7 9 8 8 8 7 6 5 5 5 5 5 4 4 6 6 5 5 5 5 2 3 4 3 4 4 4 4 3 2 3 7 6 3 6 6 5 6 7 7 8 8 8
18 18 17 16 16 17 16 16 16 15 14 13 10 12 12 12 11 11 11 10 10 9 9 9 9 8 8 8 8 6 7 6 7 8 7 6 5 5 5 6 7 8 9 9 9 8 7 6 5 4 4 5 4 4 5 7 6 3 4 4 5 3 3 3 4 3 2 3 3 4 3 9 6 5 5 7 7 9 9 7 7 8 8 8 8
17 17 16 15 15 15 15 16 16 15 15 13 11 12 12 11 11 11 11 10 9 10 9 9 9 8 8 8 7 7 7 8 7 7 7 6 6 6 6 6 7 9 10 10 9 8 6 5 5 4 4 4 4 4 8 9 8 7 5 3 3 4 3 3 4 2 2 2 1 3 3 5 5 3 4 8 8 9 10 11 13 13 12 10 9
17 17 16 16 16 16 15 14 14 13 15 12 12 12 12 11 11 11 11 10 10 10 10 10 9 8 8 8 8 8 8 8 7 7 7 7 7 7 6 6 7 8 9 9 9 7 6 5 4 4 4 4 4 7 10 12 13 13 9 5 3 4 2 2 4 2 1 1 1 3 3 3 2 2 4 4 6 9 11 12 13 14 15 16 13
18 18 17 16 16 16 16 14 13 13 12 12 14 13 12 12 12 11 10 10 11 10 10 9 8 8 8 8 8 9 9 7 8 8 7 7 7 6 6 6 6 6 7 9 8 8 7 5 5 5 4 4 4 8 10 12 13 13 13 9 5 4 5 4 4 5 1 2 2 4 3 2 1 5 5 4 4 5 9 12 13 13 14 14 15
15 16 15 14 13 13 14 15 13 13 13 14 13 12 11 11 11 10 11 10 11 10 10 10 9 9 9 8 9 9 8 8 8 7 7 7 7 7 6 5 5 6 7 8 8 8 6 6 5 5 4 4 4 6 10 12 13 13 13 9 5 5 6 7 7 9 4 2 4 4 2 1 2 4 4 4 5 5 7 7 7 7 7 10 13
17 16 16 15 15 14 14 12 11 13 13 13 12 11 12 11 11 11 10 11 11 11 10 10 9 9 9 9 9 8 9 8 8 8 8 8 7 7 7 6 6 6 5 6 8 7 6 6 5 5 5 5 3 8 10 12 12 13 12 9 6 6 6 6 6 7 8 2 4 3 1 1 3 5 5 7 7 6 7 7 7 8 8 8 9
16 18 16 16 16 16 15 13 11 12 13 13 13 13 13 12 11 11 11 11 11 11 10 9 10 9 9 9 9 10 9 8 9 9 9 8 7 7 7 6 5 5 4 4 5 6 5 5 5 5 5 4 3 7 10 11 12 12 11 6 5 5 6 6 6 6 6 3 1 2 1 2 4 5 9 14 12 9 8 9 9 9 9 8 8
15 16 15 15 15 15 15 14 13 12 14 14 13 13 13 12 12 11 11 11 11 11 10 10 9 9 10 10 10 10 9 9 9 9 7 6 7 7 7 6 7 6 6 5 4 5 5 6 5 4 5 4 4 5 8 9 11 11 8 6 4 6 5 6 6 5 4 4 2 0 1 3 5 6 11 14 16 14 10 10 9 9 9 9 10
15 14 14 15 14 14 14 15 15 12 14 13 14 14 14 13 12 11 11 11 10 10 10 10 9 10 10 10 9 9 10 9 8 8 8 7 7 6 6 6 7 7 7 6 5 5 4 5 6 5 5 4 3 3 6 8 9 9 7 4 4 5 6 5 6 7 6 5 4 6 5 5 7 8 13 16 18 15 10 10 9 9 11 10 11
17 18 17 16 15 15 14 14 14 13 15 15 15 16 14 13 12 12 12 11 10 10 10 10 10 10 10 10 9 9 9 9 9 8 7 8 8 8 7 7 7 7 7 7 6 6 4 4 4 5 8 6 4 2 4 5 6 5 4 3 4 4 5 6 6 7 7 7 6 6 10 11 10 12 16 17 21 17 10 10 9 8 9 11 11
16 16 17 16 16 16 15 15 15 15 15 17 16 14 13 12 12 11 11 11 11 11 9 9 10 10 9 9 9 9 9 9 9 7 7 7 6 7 7 7 6 7 7 6 6 6 6 4 4 5 5 5 4 2 1 1 4 5 5 3 3 4 4 4 5 5 6 7 7 6 8 11 14 15 17 19 19 20 12 9 8 7 9 11 11
17 16 16 15 15 16 15 16 15 15 15 15 14 14 13 12 12 11 11 11 10 9 10 11 10 10 9 9 8 9 10 8 7 7 7 7 7 7 6 6 5 7 7 7 7 6 6 5 4 4 5 5 4 4 1 0 3 5 5 5 3 2 2 3 4 5 5 6 7 7 6 11 15 17 18 19 18 18 16 9 7 6 7 12 14
15 18 16 14 14 15 15 15 14 16 15 14 14 14 13 12 12 12 11 10 10 11 11 10 11 10 9 9 10 9 9 8 7 7 7 6 5 6 6 6 6 6 7 6 5 5 6 6 5 4 4 4 5 7 3 3 2 5 5 5 4 2 1 1 4 4 5 6 7 6 7 12 17 17 17 18 18 16 16 7 9 11 15 17 13
17 16 15 15 14 15 16 15 14 14 13 13 14 14 12 11 11 11 11 11 11 11 11 11 11 10 10 10 10 10 8 7 7 7 7 7 6 7 6 6 6 5 5 5 5 5 4 5 4 5 4 4 4 4 6 2 2 5 5 7 5 3 6 2 2 5 5 7 5 6 9 15 18 16 16 17 16 15 10 9 15 14 14 17 12
15 16 16 15 14 14 14 13 12 13 12 13 14 14 13 12 12 11 11 10 11 11 11 11 10 10 10 10 10 9 7 7 7 7 7 7 6 6 7 6 6 6 5 5 4 6 5 5 5 5 4 3 3 2 4 5 3 5 6 7 8 8 7 4 3 4 5 5 6 7 11 17 18 17 16 15 14 11 9 14 15 15 14 13 8
16 14 14 13 14 15 14 13 11 13 12 12 12 14 14 13 11 11 12 12 11 11 11 11 10 10 10 9 8 8 8 7 7 7 7 6 6 7 7 6 5 4 4 5 5 4 4 5 7 6 6 5 4 3 2 2 7 6 6 7 8 9 9 9 6 5 4 5 10 15 17 17 17 16 15 13 9 11 14 14 14 14 12 8 8
14 13 13 12 13 14 15 14 13 14 12 11 11 12 14 12 11 11 12 12 12 12 11 11 11 10 10 10 9 8 7 7 7 6 6 6 6 6 6 6 5 6 5 5 5 3 6 5 6 7 6 5 3 3 1 2 3 4 4 6 8 8 8 8 6 6 8 12 14 15 17 16 14 13 9 5 6 9 13 14 13 11 7 7 7
15 15 14 14 15 15 16 14 15 13 12 11 12 11 11 10 12 12 12 12 12 12 11 11 11 10 9 9 10 8 7 7 6 6 6 6 6 4 5 5 6 7 5 6 6 5 5 5 6 6 7 6 3 2 2 1 2 2 3 4 4 5 6 7 7 7 8 8 11 11 11 13 11 14 10 8 9 9 8 8 7 7 7 7 7
14 16 14 14 15 15 15 14 14 12 11 12 12 12 11 12 11 12 12 12 12 12 12 12 12 10 9 9 9 11 10 7 7 7 6 4 4 4 3 3 5 5 5 5 6 6 5 4 5 6 7 5 3 2 1 1 0 1 3 3 3 3 3 3 5 6 7 8 7 9 10 8 7 7 7 7 7 7 7 6 7 7 8 6 9
15 15 14 14 13 14 14 15 13 11 11 11 11 11 12 13 12 12 12 13 12 12 12 12 11 9 9 8 8 8 7 7 7 5 2 2 5 6 6 4 2 0 6 7 6 6 5 4 5 6 7 6 4 3 3 5 2 5 2 4 5 5 4 6 4 5 6 7 6 7 7 8 7 6 7 7 7 7 8 7 7 7 8 7 8
15 14 13 12 12 14 15 15 12 11 11 12 11 11 12 12 12 11 12 13 12 12 12 11 10 9 9 9 8 8 7 6 6 6 5 5 5 8 9 8 2 1 7 9 8 4 5 6 6 2 4 4 5 4 7 8 7 7 7 8 9 8 7 6 8 9 4 5 5 5 7 6 7 5 6 6 7 7 7 8 8 7 8 7 9
16 15 14 14 13 14 15 14 12 11 12 12 11 12 12 11 12 11 13 13 12 11 11 10 10 9 10 9 9 8 7 6 7 6 5 7 6 7 8 6 10 8 8 10 9 9 7 7 8 3 2 8 8 7 9 8 8 8 8 8 9 8 8 5 4 6 4 3 4 6 7 7 5 4 4 5 6 7 7 7 8 7 7 8 7
Wind_Direction
105 78 87 77 62 61 72 82 94 101 119 129 124 128 132 133 126 117 119 124 131 135 135 136 127 116 95 106 112 109 111 123 120 103 76 63 60 58 49 44 42 44 44 41 39 38 38 36 43 35 30 24 26 29 26 15 9 10 358 345 351 355 353 3 355 330 346 342 320 296 300 309 306 354 28 35 10 343 327 329 320 322 305 296 288
109 96 98 96 85 90 93 103 119 126 140 133 134 135 132 122 114 118 122 131 141 139 137 136 160 150 137 141 128 131 146 126 97 80 75 65 59 57 53 49 49 49 48 47 43 40 36 33 38 43 34 24 21 16 23 21 18 18 13 10 359 7 359 357 359 358 19 346 328 329 329 323 304 50 36 6 353 350 345 342 339 331 327 316 312
121 112 110 122 124 106 102 117 123 129 136 139 141 124 115 111 115 122 129 134 139 133 122 131 117 91 98 140 145 131 97 97 94 88 80 77 67 60 56 50 50 48 43 45 47 38 37 37 30 38 41 32 25 22 27 31 21 18 15 22 2 5 356 4 18 23 358 316 298 3 346 348 342 1 350 350 346 3 357 6 358 4 6 359 347
139 130 132 137 138 120 119 120 122 134 143 145 136 115 105 103 113 117 117 124 126 117 114 100 89 83 83 121 141 101 109 92 82 77 76 73 63 59 52 48 48 52 44 43 50 42 41 36 26 28 27 22 37 46 39 33 22 22 22 28 26 19 4 7 22 14 21 6 18 347 289 349 333 2 335 314 338 357 6 7 5 11 4 360 355
142 135 139 141 145 141 138 129 135 143 136 129 113 100 104 108 112 115 121 121 125 121 109 105 101 97 115 149 129 99 86 82 77 71 71 76 75 56 55 53 50 49 43 43 47 48 42 40 33 24 31 30 43 50 44 29 32 38 36 36 32 27 25 11 16 18 28 24 21 1 359 23 16 328 324 289 45 343 9 6 7 9 5 358 349
145 143 145 145 148 140 137 139 144 124 118 116 97 96 111 114 116 118 118 126 128 123 121 117 115 123 129 130 113 96 86 75 80 87 84 78 85 87 59 52 48 43 39 39 35 42 47 44 39 32 32 33 42 46 37 30 34 37 33 41 34 26 46 38 23 14 24 29 29 32 3 1 335 315 345 319 333 30 358 14 15 9 2 351 354
130 134 140 148 150 142 145 147 139 121 114 118 115 119 117 113 116 122 127 127 129 132 131 121 122 119 116 106 98 97 94 79 84 80 83 83 76 63 58 42 44 48 40 46 42 39 41 43 43 37 35 40 38 36 34 38 41 43 39 41 35 28 34 45 33 6 4 31 19 16 20 21 7 6 11 336 333 330 48 11 359 6 357 344 4
139 147 152 152 147 146 145 135 129 128 125 126 126 123 122 121 112 103 99 106 113 120 117 135 136 130 116 105 103 97 97 100 91 83 74 78 79 77 75 61 45 44 43 46 48 41 38 39 41 40 41 41 39 36 45 48 52 47 45 42 35 36 40 44 33 20 31 18 3 15 17 10 10 36 30 10 335 331 325 345 14 356 345 358 8
144 147 154 154 145 141 133 127 126 124 127 131 132 125 111 111 110 102 91 90 88 81 72 63 84 109 109 107 102 102 107 103 97 93 86 74 78 69 75 68 58 51 49 48 44 39 39 46 42 42 44 42 40 38 47 54 55 55 46 42 40 35 41 48 47 29 32 30 10 22 19 12 5 32 32 17 15 336 325 343 334 336 338 32 353
145 145 146 147 135 129 122 123 123 127 131 129 122 114 109 107 103 96 84 79 80 76 74 69 70 89 103 106 106 103 100 101 104 105 94 82 84 69 63 70 63 54 47 47 47 39 42 47 45 43 40 39 43 38 45 56 56 60 55 57 52 49 38 52 51 34 27 13 29 14 12 5 37 43 30 21 9 46 347 332 341 340 335 335 358
143 141 141 133 130 125 128 132 132 131 138 133 117 114 113 106 105 95 91 87 84 85 84 79 72 70 86 97 107 113 109 111 109 100 104 89 88 83 81 77 69 62 54 49 47 44 44 45 42 41 39 37 40 36 36 48 58 60 52 49 47 53 41 44 28 22 18 16 8 10 3 24 27 28 13 17 12 354 345 336 329 339 330 323 339
143 142 142 136 131 132 134 142 150 149 139 124 119 119 118 118 111 105 97 90 89 90 87 84 79 75 73 78 89 106 115 118 117 130 123 117 111 88 73 69 61 58 51 57 49 45 48 42 39 39 37 36 37 34 33 39 45 38 26 38 40 37 30 34 34 30 25 21 12 13 24 35 38 33 27 19 10 353 345 332 336 337 321 317 318
147 143 143 143 143 144 147 160 160 152 133 130 130 129 126 121 118 113 103 91 83 86 90 90 88 83 82 75 66 61 77 102 114 116 123 121 108 90 80 77 67 59 42 57 59 56 51 45 38 38 36 32 35 36 35 44 48 33 28 25 36 44 41 42 39 30 31 24 13 26 38 36 32 29 30 19 0 349 352 349 347 345 330 327 333
146 143 146 148 147 147 156 166 162 144 136 136 137 134 129 123 119 110 102 95 88 80 82 81 79 79 78 76 70 68 73 85 91 94 96 98 102 90 88 87 80 74 57 51 59 64 55 50 45 41 37 35 37 38 40 39 48 42 30 24 27 41 47 41 39 34 30 30 37 45 40 32 29 26 25 17 13 14 13 6 349 345 340 330 326
143 144 149 149 149 152 162 165 158 143 142 140 136 130 126 123 117 106 100 94 87 81 76 76 77 79 77 77 82 78 81 85 89 97 104 103 84 89 92 90 90 78 67 57 57 65 61 50 49 45 36 36 38 40 39 37 36 38 31 27 29 41 50 46 42 36 30 32 45 50 44 35 25 28 27 31 29 26 19 8 0 349 345 344 338
147 145 147 146 148 154 160 168 151 146 143 136 133 130 125 126 116 108 106 99 90 84 85 86 84 83 82 88 89 92 92 93 98 99 94 88 96 100 98 98 97 87 74 65 57 72 66 60 54 47 41 39 38 43 44 42 35 35 29 24 26 26 46 48 45 37 29 33 45 50 48 35 30 34 38 35 32 26 19 8 6 4 353 339 341
149 151 149 148 150 163 170 163 149 145 139 137 136 133 131 124 118 115 106 96 96 98 95 91 89 87 88 90 95 94 99 105 109 105 85 86 97 98 100 109 104 96 89 74 71 70 77 72 61 54 46 40 39 39 44 45 40 37 32 28 28 28 41 40 44 41 30 31 35 52 49 45 40 40 39 35 28 22 15 7 9 5 355 340 336
146 149 151 153 159 170 167 153 148 143 139 138 134 128 121 120 120 113 107 105 104 101 102 102 100 97 98 101 103 109 114 119 120 107 98 101 94 97 98 94 102 104 99 89 76 66 58 63 63 56 49 42 38 35 38 38 44 35 30 29 32 40 40 37 39 43 32 35 46 52 47 50 39 40 40 28 26 17 8 4 358 355 355 348 332
152 156 156 154 163 168 157 148 146 141 140 136 129 124 120 117 115 111 111 111 108 105 105 104 103 107 113 117 121 125 134 125 115 104 104 97 96 96 94 96 84 83 86 81 79 73 67 57 55 51 45 42 34 29 28 30 30 43 30 32 24 43 46 47 44 44 33 47 54 53 47 47 40 36 29 24 16 12 1 358 351 350 350 342 330
159 158 158 157 165 161 155 150 149 147 141 136 134 128 125 124 117 111 105 106 107 106 109 113 119 128 142 142 148 147 129 117 116 111 101 104 106 100 94 83 89 85 84 83 78 76 68 62 54 51 44 39 35 26 22 23 20 19 37 32 30 47 51 51 45 34 42 57 60 55 51 45 38 34 22 10 6 359 359 354 350 347 341 337 329
163 161 160 160 160 157 154 150 146 139 136 137 137 135 132 129 124 119 118 120 119 125 129 135 144 158 150 151 147 125 112 107 104 104 107 109 108 108 105 106 92 90 94 89 86 79 72 65 59 53 47 40 34 26 17 16 19 9 6 37 40 47 48 47 52 42 47 65 64 59 53 49 39 37 5 356 353 357 352 348 348 345 341 341 340
159 160 159 159 155 153 152 147 140 139 141 140 138 135 132 130 131 126 125 128 134 151 153 150 146 127 126 120 109 105 101 98 96 99 101 99 99 99 104 94 96 90 83 84 83 80 74 68 63 55 48 40 32 27 16 12 15 9 351 35 41 45 37 40 60 49 50 65 66 64 56 50 42 31 9 359 359 358 353 351 351 351 348 345 346
157 156 158 154 151 153 153 147 145 145 142 141 142 141 135 129 127 132 133 139 152 159 133 124 124 125 111 106 106 105 106 106 108 107 110 109 102 97 92 97 100 93 85 88 83 76 70 68 66 59 50 41 31 23 14 14 12 8 351 22 51 53 39 54 66 61 60 66 67 65 59 45 30 28 17 13 7 360 358 356 352 349 345 337 333
153 152 152 151 146 149 149 148 149 150 145 146 146 142 134 131 133 135 141 151 166 146 133 127 122 116 112 108 106 108 106 112 113 117 117 117 115 111 104 97 99 94 91 85 81 76 71 67 63 59 53 43 33 21 15 14 13 359 0 351 48 60 48 67 81 74 67 72 81 75 62 41 41 41 28 18 7 3 1 356 348 341 331 326 324
148 149 151 149 146 152 154 152 153 149 145 147 149 147 145 143 144 148 155 164 147 135 130 128 124 125 123 119 117 112 113 113 116 117 114 110 110 110 108 101 84 81 86 88 83 79 75 67 61 59 54 46 36 24 16 12 5 1 359 352 351 58 62 60 83 85 84 83 87 97 71 50 55 51 28 22 7 3 356 350 339 327 320 316 317
148 147 147 152 150 149 151 154 156 157 152 151 151 151 150 147 149 154 157 148 139 129 128 130 135 134 130 124 120 118 119 121 123 121 118 115 111 108 105 97 97 95 90 87 87 82 80 74 66 59 54 50 40 29 23 11 3 359 356 356 350 44 67 60 83 92 91 89 90 83 57 70 68 59 37 24 7 353 347 342 330 321 317 312 311
153 153 149 146 149 154 154 156 160 159 158 155 155 158 158 150 148 146 143 139 136 135 134 138 137 135 130 127 126 127 127 127 126 124 115 105 106 110 109 108 102 97 95 91 88 89 85 81 73 63 55 46 39 31 24 13 4 2 357 354 358 359 60 25 85 99 96 91 50 52 74 83 86 77 52 26 359 344 344 336 326 318 316 314 311
148 152 155 157 157 156 158 159 159 162 162 157 159 162 150 149 147 146 145 140 141 140 141 138 135 135 133 130 131 129 129 130 123 109 102 101 98 97 107 113 110 107 105 99 95 93 89 85 80 71 57 49 39 31 21 11 7 1 355 354 354 335 16 17 65 90 98 89 58 61 105 115 114 96 64 26 0 342 336 334 325 321 318 317 310
155 159 158 157 160 160 159 158 161 163 163 160 159 143 136 142 145 145 145 145 143 143 144 142 142 142 140 136 132 131 128 123 117 110 104 101 100 102 101 102 104 105 97 94 95 91 90 87 81 72 59 47 43 31 21 6 1 0 0 355 336 337 315 40 45 93 96 94 82 70 127 131 90 66 55 23 355 339 337 331 323 323 317 315 304
160 162 163 162 159 161 162 162 165 166 163 163 150 145 144 145 145 143 146 146 146 148 146 143 145 145 140 136 133 129 126 120 116 117 117 116 114 108 100 94 97 102 101 95 86 83 84 86 83 69 59 49 40 31 17 19 20 355 352 341 334 332 325 44 47 92 95 94 95 77 76 62 86 79 24 356 342 335 328 324 317 318 314 310 301
160 162 163 161 160 163 165 167 166 164 162 159 151 143 144 141 142 145 148 150 149 146 142 144 145 145 138 134 129 127 123 122 122 119 116 113 111 108 104 100 99 103 105 102 97 94 92 86 85 77 58 50 37 18 14 26 30 22 8 355 335 323 314 62 30 77 134 95 55 90 100 54 50 28 333 336 331 325 317 319 316 311 306 305 306
163 163 162 163 165 165 167 169 168 164 158 155 150 145 148 148 147 149 150 148 144 143 143 145 146 143 140 137 135 130 128 129 124 120 117 115 112 108 106 104 103 107 112 110 108 108 105 101 92 80 63 46 34 10 21 22 18 15 14 359 333 331 349 64 38 27 111 162 109 81 81 61 36 351 333 328 318 310 311 313 312 306 303 300 295
164 166 166 167 166 166 167 167 169 162 152 147 151 150 152 151 151 149 148 147 144 145 146 147 150 146 142 140 136 134 134 132 129 125 120 118 117 114 110 105 104 110 112 116 122 117 112 110 96 80 67 47 42 12 24 25 21 15 9 13 359 356 15 352 9 347 92 173 100 85 69 31 285 315 322 312 302 307 309 309 304 300 296 294 296
164 164 166 165 163 167 168 167 163 161 151 148 149 147 145 146 149 149 148 146 144 148 151 152 149 146 143 141 138 136 136 134 129 124 120 119 119 118 117 110 104 95 103 122 130 128 129 115 104 91 72 55 41 15 29 27 23 18 13 17 1 13 26 18 8 3 337 126 90 100 80 336 300 294 298 300 312 319 312 307 306 301 296 296 298
165 167 169 168 165 164 164 163 156 149 147 145 142 141 146 150 153 149 147 148 150 152 155 154 148 146 142 142 138 135 135 132 126 123 121 123 125 123 117 118 114 114 112 118 132 138 136 129 117 101 80 51 28 19 30 30 26 20 14 25 3 9 21 13 7 7 359 39 114 126 133 317 279 299 282 322 335 326 315 308 306 306 302 299 297
169 166 167 166 165 164 164 160 154 145 150 151 150 150 153 153 151 150 151 153 154 155 155 151 147 146 143 140 136 136 134 130 127 127 132 137 138 137 135 134 122 116 108 95 90 109 125 128 128 110 85 57 26 23 31 31 28 22 23 23 10 17 17 5 3 4 359 348 143 124 101 322 302 282 316 332 330 333 324 318 316 311 308 303 296
159 159 159 159 160 163 163 158 159 155 155 158 155 153 151 150 153 155 155 155 156 156 154 150 146 143 140 138 138 136 133 131 133 135 139 139 133 129 127 124 119 121 112 103 104 100 114 127 130 115 105 85 46 27 39 35 28 25 27 11 11 18 12 5 354 349 346 339 295 226 260 305 296 315 322 332 329 339 326 321 315 312 309 307 300
149 146 149 156 162 162 159 160 160 159 158 154 153 150 149 155 157 155 154 157 156 155 150 146 144 143 139 139 139 137 135 134 135 139 140 138 134 130 133 131 131 132 127 132 120 108 113 125 134 143 135 115 88 44 53 41 33 25 26 24 359 18 3 3 352 345 350 347 303 286 294 306 321 318 325 330 327 333 327 319 317 316 316 312 303
151 153 156 161 163 162 160 158 162 157 151 150 149 149 152 157 156 157 157 156 156 152 149 146 145 141 138 137 137 135 135 135 137 143 142 141 143 146 147 142 146 144 146 142 134 127 131 132 139 146 143 130 132 87 56 42 45 32 29 10 11 21 14 354 353 341 340 344 329 305 314 322 319 318 326 327 324 326 325 317 318 317 310 307 301
149 155 157 159 159 160 163 164 165 155 149 147 147 151 154 157 158 156 156 156 155 152 145 140 138 137 136 135 136 135 136 138 142 144 142 144 144 136 143 149 154 148 148 151 145 150 154 173 175 147 149 145 146 146 107 52 43 40 36 24 21 30 6 351 344 338 337 326 315 313 319 312 314 319 323 323 322 322 323 318 322 318 306 307 312
152 154 154 158 164 166 164 164 159 152 151 149 150 153 157 159 156 155 157 155 150 142 139 139 137 136 136 135 134 136 137 139 141 143 141 138 141 146 148 143 143 142 142 151 159 164 170 181 185 172 145 159 155 158 201 187 43 53 55 51 27 18 357 347 330 325 319 311 304 307 312 312 318 324 324 322 320 320 323 323 315 305 297 299 311
149 152 155 157 160 162 158 159 157 155 153 153 154 156 159 158 157 159 156 150 143 141 139 137 139 138 135 133 134 136 137 140 143 137 138 146 150 134 136 137 138 138 146 160 161 168 176 183 181 172 144 152 163 160 180 239 42 64 66 62 42 331 332 344 340 326 316 308 299 301 316 316 319 323 321 318 319 319 321 325 314 311 315 330 332
151 155 157 154 157 159 159 158 157 155 153 154 153 155 158 157 158 157 151 146 143 141 140 138 137 135 135 136 137 138 140 141 141 142 141 144 139 129 130 131 136 143 162 175 179 185 184 188 149 150 143 143 152 172 171 179 85 74 43 34 31 356 334 0 346 320 311 303 297 310 313 318 319 321 321 319 320 317 317 321 329 332 329 333 333
152 153 154 153 153 154 154 156 156 155 153 154 153 156 158 158 158 153 145 141 140 140 137 136 136 135 135 136 137 136 137 138 142 143 141 141 137 135 140 151 161 165 179 185 200 176 174 160 154 145 148 150 152 149 183 169 79 59 37 18 5 355 351 347 343 325 311 306 316 320 315 317 322 328 324 320 315 314 317 321 331 330 332 336 336
153 154 154 155 154 155 154 155 154 153 154 154 155 156 156 156 156 149 145 143 142 137 134 135 137 136 136 137 133 136 140 141 143 141 143 140 140 144 153 169 164 174 176 181 213 172 162 159 146 161 168 173 193 171 197 108 71 44 25 3 353 352 341 354 349 325 322 317 319 320 323 323 321 323 322 313 316 330 326 326 331 332 335 345 340
148 150 154 155 153 155 158 153 151 155 153 152 155 155 157 156 150 145 144 143 139 136 137 139 139 139 140 139 138 140 141 142 142 143 149 155 153 160 169 181 176 188 190 194 201 158 144 142 139 155 160 165 170 185 183 59 47 39 9 346 338 337 334 336 339 314 313 322 325 324 319 320 322 321 320 307 335 328 332 331 336 336 340 344 346
156 157 155 155 158 160 163 153 154 157 152 152 154 152 150 146 148 146 145 143 140 140 140 140 143 144 143 143 144 147 148 148 147 153 157 165 165 166 189 182 176 174 156 151 142 141 151 137 143 128 128 139 151 128 96 52 28 16 345 330 335 327 339 341 341 332 334 331 322 318 307 303 305 309 311 332 335 332 337 339 340 339 340 347 344
152 156 158 155 159 163 161 155 157 156 152 152 153 152 149 149 147 148 144 140 141 144 145 148 149 148 147 149 148 152 150 151 156 155 164 170 178 164 128 133 168 155 140 139 118 110 110 126 134 117 125 135 142 166 168 109 259 320 304 310 307 314 313 325 317 319 320 316 311 309 315 321 332 332 339 346 343 337 338 339 343 341 345 344 343
152 159 160 160 159 157 157 156 156 153 150 150 152 150 152 151 151 147 143 142 144 145 146 149 151 150 150 149 151 155 156 153 154 122 93 181 173 117 128 109 26 134 137 134 127 117 119 120 129 133 127 144 170 190 221 206 189 203 233 275 306 301 307 306 291 305 313 313 325 327 332 331 331 323 344 346 342 344 337 342 347 348 350 346 348
155 156 158 159 160 153 155 157 154 152 151 153 152 151 153 152 150 147 145 145 147 147 149 154 155 153 150 150 154 158 153 145 130 118 114 56 49 135 146 134 127 35 118 133 134 146 151 124 117 165 160 154 182 206 203 187 210 222 235 240 252 266 270 279 296 305 267 283 303 319 312 317 306 333 348 347 345 344 343 342 344 347 350 350 351
157 158 161 164 163 158 157 156 152 152 153 153 150 152 154 155 150 149 148 149 148 149 155 157 157 156 157 156 156 158 158 143 137 144 136 115 99 32 31 105 144 155 136 119 120 131 131 138 142 148 198 160 171 179 181 201 222 234 243 256 267 277 292 294 294 331 335 326 309 317 310 315 308 338 350 337 347 350 345 346 342 344 347 346 343